Theta_e
333 333 330 323 319 315 313 312 312 310 308 306 305 304 303 302 301 300 300 299 299 301 301 300 301 301 301 300 300 299 300 299
333 333 326 322 316 314 312 312 311 308 307 306 305 303 302 301 299 300 299 298 299 299 299 299 300 300 300 299 298 297 299 297
334 329 325 319 315 314 311 312 310 308 307 306 306 303 302 300 300 298 298 298 298 298 298 298 299 299 298 297 296 296 297 295
331 327 322 318 314 313 312 311 309 308 307 307 304 303 301 300 300 298 297 297 297 296 297 297 297 297 297 296 295 295 294 294
330 325 320 317 314 313 311 311 309 308 308 306 303 302 302 301 300 298 296 297 295 295 296 296 296 296 295 295 294 294 293 292
329 323 319 316 314 313 311 310 309 308 306 305 303 304 302 300 298 298 297 296 294 293 294 295 295 295 294 294 294 294 292 290
327 322 319 316 314 312 311 310 308 306 306 304 305 303 301 298 298 297 297 297 294 293 293 294 294 293 293 293 294 293 292 289
325 321 318 316 314 312 310 309 308 306 306 305 304 301 300 298 298 297 297 296 294 292 292 292 292 292 292 293 293 291 292 290
325 320 318 316 313 312 310 308 307 306 305 304 302 299 299 298 298 296 296 295 293 291 291 291 291 291 291 292 292 290 291 290
323 320 317 315 313 311 309 308 305 304 303 302 300 299 298 296 296 295 294 293 291 291 290 290 290 290 290 291 290 289 290 289
322 318 317 314 312 310 308 307 305 303 301 300 298 297 296 295 294 294 292 290 290 290 290 289 289 289 289 289 289 288 288 287
321 318 316 314 311 309 308 306 303 301 299 298 296 295 294 293 293 293 292 290 290 289 289 288 288 288 288 288 287 287 287 286
319 317 315 313 310 309 307 304 302 300 298 296 295 294 293 293 292 292 291 290 289 288 288 288 287 287 287 287 286 286 285 285
317 317 311 306 308 307 306 303 300 299 296 294 293 292 292 291 291 291 291 289 288 288 287 287 286 286 286 286 286 285 284 284
315 314 312 310 307 305 304 300 299 296 295 293 292 292 292 291 290 290 290 289 288 288 287 286 285 285 285 285 285 286 285 283
315 313 310 309 304 302 300 298 296 294 294 293 292 291 291 290 290 289 290 290 289 288 288 287 284 282 285 285 284 284 284 284
314 312 309 306 302 300 298 296 295 294 293 292 291 290 289 289 289 290 289 289 288 288 288 286 283 280 283 284 284 283 283 283
313 312 308 306 301 299 297 294 293 292 291 290 289 288 288 288 289 289 288 287 287 287 286 284 282 279 281 282 282 281 281 280
312 311 309 305 301 300 297 293 292 291 289 288 287 286 287 288 289 288 287 286 284 284 283 282 280 279 280 281 281 281 279 279
Wind_Speed
24 32 30 31 31 31 27 26 26 25 24 21 19 17 16 14 10 10 8 9 11 13 9 10 11 12 13 17 17 18 17 22
29 29 27 29 33 32 30 28 28 27 25 23 21 20 17 14 12 11 9 9 11 10 10 9 11 11 12 15 17 17 17 23
20 27 28 30 33 33 31 29 29 27 25 23 21 20 17 15 12 11 10 9 11 9 9 9 10 11 11 14 15 16 13 21
22 23 30 29 32 33 32 31 30 26 25 25 25 21 19 16 11 12 10 9 10 9 9 9 9 9 10 11 13 14 15 15
23 24 28 31 29 29 30 30 30 26 27 25 25 21 19 17 17 12 11 9 8 8 8 9 8 9 9 9 10 11 11 13
26 26 33 36 33 30 28 29 28 25 25 26 26 19 25 22 17 16 11 9 8 7 8 7 8 7 7 7 8 9 11 11
25 31 38 36 35 33 29 29 28 27 25 26 21 26 24 23 18 15 13 10 7 8 6 7 6 6 6 6 6 8 8 9
22 27 25 34 36 36 32 31 27 27 24 26 22 25 23 22 19 18 15 12 10 6 6 6 5 5 5 4 4 7 7 8
21 26 24 33 36 38 34 32 28 29 25 25 26 25 22 21 17 17 13 13 9 8 7 6 5 5 4 5 5 5 7 8
16 22 23 31 33 34 34 30 27 25 24 25 27 24 23 22 21 18 15 11 9 9 8 6 5 4 5 5 4 7 7 9
10 17 19 30 33 36 36 31 29 27 25 26 26 27 24 23 21 18 16 14 11 11 9 7 6 6 6 5 6 7 8 10
10 14 23 28 30 34 35 31 32 29 27 26 27 26 26 24 22 19 14 13 12 11 10 8 7 6 6 7 7 8 9 11
9 9 18 23 28 30 30 32 32 29 25 26 29 29 27 23 21 16 15 14 12 11 11 10 7 7 6 8 8 8 10 12
10 11 11 15 23 28 25 29 33 31 26 27 32 29 26 22 21 19 17 15 14 12 11 10 9 8 8 8 7 8 10 11
12 12 11 19 23 33 28 28 35 32 30 30 30 28 26 24 23 20 18 16 14 11 11 11 10 10 8 8 8 8 9 12
10 14 11 18 25 26 30 32 35 32 29 28 28 29 28 26 23 21 18 16 14 13 13 12 8 8 11 11 9 9 9 9
13 15 16 15 21 27 31 34 36 37 36 32 31 31 29 25 24 21 19 17 17 16 15 15 13 9 12 13 9 10 10 9
11 15 18 22 27 29 28 32 35 29 28 28 29 30 29 27 24 23 21 19 18 18 16 14 11 12 12 12 11 10 11 10
13 13 18 25 30 30 28 28 31 28 26 27 30 31 30 27 25 25 23 20 19 17 14 13 11 12 13 13 12 11 11 10
Wind_Direction
185 195 183 172 168 163 170 169 169 158 153 156 150 147 137 138 142 117 108 77 74 82 51 35 42 32 20 10 4 356 351 348
180 196 175 171 159 163 172 172 167 160 160 160 157 151 143 142 132 112 101 85 78 76 69 45 41 34 23 13 4 356 360 0
176 168 173 172 164 167 172 173 170 172 168 166 161 150 146 137 133 119 99 84 83 61 69 54 40 37 23 20 11 1 5 16
176 169 173 174 168 172 175 173 176 179 171 157 143 145 138 136 125 113 103 95 79 74 64 60 51 44 34 23 18 14 5 16
180 168 169 174 171 174 177 174 179 183 165 151 153 152 157 158 141 136 118 103 88 78 73 63 53 48 37 28 21 18 19 16
179 171 170 172 167 175 180 176 182 177 162 163 165 160 140 137 142 134 123 109 98 80 78 73 63 53 41 30 27 23 32 33
174 170 167 170 166 169 179 177 183 171 172 169 171 141 140 140 141 136 136 130 123 85 84 82 69 64 42 33 26 29 33 35
166 164 170 168 165 165 176 177 178 173 178 166 160 147 148 147 148 146 143 145 137 102 97 85 84 67 52 42 31 37 23 33
159 164 167 166 167 165 170 176 173 175 170 160 152 148 143 144 143 141 141 143 139 129 113 103 86 72 68 69 47 37 31 34
162 158 164 164 164 162 164 172 165 164 164 151 148 145 142 143 139 147 140 140 140 128 117 113 102 93 73 70 73 51 44 40
135 145 158 164 162 157 160 168 163 163 160 152 147 144 146 150 144 140 146 148 148 131 131 130 123 98 90 98 80 59 57 47
145 149 159 161 156 158 161 162 157 158 159 156 147 144 149 148 146 147 147 147 141 136 139 128 115 107 104 97 84 68 64 52
129 114 148 149 152 157 159 152 153 159 160 152 150 150 152 151 143 146 149 148 144 143 132 122 121 122 105 91 86 73 68 55
127 125 131 134 140 149 154 148 151 157 158 155 157 155 157 151 146 153 157 152 147 139 135 131 131 118 103 91 85 81 66 67
146 133 132 141 142 150 149 145 155 156 161 161 157 157 159 156 154 158 158 154 143 142 141 135 125 112 96 99 94 82 71 63
157 155 151 148 146 150 144 150 154 158 160 163 164 164 158 157 156 156 155 148 153 155 147 135 119 120 131 112 98 89 87 79
177 164 157 152 151 152 144 152 164 174 171 169 168 165 159 158 154 155 150 153 159 157 149 138 130 106 122 109 106 112 97 85
180 174 167 161 161 162 156 157 163 165 164 166 164 164 160 158 153 154 157 162 162 149 144 146 133 114 109 109 99 98 95 86
173 168 162 167 165 170 159 159 161 163 164 164 168 165 160 156 162 158 160 165 159 157 148 140 133 117 116 110 107 100 97 97